Regional Weather Roundup
Issued by NWS Jackson, KY

Home | Current Version | Previous Version | Text Only | Print | Product List | Glossary Off
Versions: 1 2 3 4 5 6 7 8 9 10 11 12 13 14 15 16 17 18 19 20 21 22 23 24 25 26 27 28

000
ASUS43 KJKL 250010
RWRJKL

EAST KENTUCKY HOURLY WEATHER ROUNDUP
NATIONAL WEATHER SERVICE JACKSON KY
800 PM EDT MON JUL 24 2017

NOTE: "FAIR" INDICATES FEW OR NO CLOUDS BELOW 12,000 FEET WITH
NO SIGNIFICANT WEATHER AND/OR OBSTRUCTIONS TO VISIBILITY.

* THESE REPORTS ARE NOT UNDER NWS QUALITY CONTROL AND MAY NOT
  REPORT WEATHER SUCH AS PRECIPITATION AND FOG.

KYZ079-080-083-085-087-088-110-112-115-119-120-250100
...EASTERN KENTUCKY...

CITY           SKY/WX    TMP DP  RH WIND       PRES   REMARKS
JACKSON        CLOUDY    73  71  93 CALM      30.02R FOG
6HR MIN TEMP:  70; 6HR MAX TEMP:  86; 6HR PCP:  0.36;

LONDON         CLOUDY    79  67  66 N6        30.01R
6HR MIN TEMP:  79; 6HR MAX TEMP:  90;

SOMERSET*      CLOUDY    82  64  54 W5        30.00R
MONTICELLO*    PTCLDY    79  75  87 W3        30.00
6HR MIN TEMP:  79; 6HR MAX TEMP:  88;

WILLIAMSBURG*  PTCLDY    82  68  61 CALM      30.00R
MIDDLESBORO*   PTCLDY    82  71  69 SW3       30.00R
6HR MIN TEMP:  82; 6HR MAX TEMP:  89;

PIKE CO APT*   MOCLDY    74  74  98 CALM      30.01R
BIG SANDY APT* CLOUDY    75  75 100 SW3       29.99S
6HR MIN TEMP:  74; 6HR MAX TEMP:  86;

MOREHEAD APT*  CLOUDY    81  66  61 N3        29.99R
ASHLAND*       CLOUDY    82  72  69 CALM      29.93R
$$

KYZ035-036-041-042-044-050-067-078-099-250100
...CENTRAL KENTUCKY...

CITY           SKY/WX    TMP DP  RH WIND       PRES   REMARKS
MT STERLING*   CLOUDY    81  72  74 CALM      30.00R
FLEMING/MASON* CLOUDY    81  67  62 N6        30.00R
DANVILLE*      CLOUDY    73  72  94 CALM      30.01R
LEXINGTON      CLOUDY    80  73  79 CALM      29.98R
6HR MIN TEMP:  78; 6HR MAX TEMP:  87;

FRANKFORT      CLOUDY    85  64  49 N3        29.97R
6HR MIN TEMP:  85; 6HR MAX TEMP:  88;

LOUISVILLE     CLOUDY    86  65  49 NE10      29.95R
6HR MIN TEMP:  86; 6HR MAX TEMP:  92;

LEBANON*         N/A     84  72  65 CALM      29.98R
GLASGOW*       PTCLDY    86  72  62 SW5       29.97R HX  93
BOWLING GREEN  CLOUDY    89  71  55 W5        29.95R HX  95
6HR MIN TEMP:  89; 6HR MAX TEMP:  92;

$$

KYZ091>093-OHZ055-061-077-WVZ005-015-034-035-042-250100
...SOUTHERN OHIO/WEST VIRGINIA...

CITY           SKY/WX    TMP DP  RH WIND       PRES   REMARKS
COVINGTON      PTCLDY    80  68  66 N8        29.99R
COLUMBUS       PTCLDY    72  58  61 N12       30.01R
DAYTON         PTCLDY    73  58  59 N10       30.03R
WILMINGTON     CLEAR     75  65  70 N9        30.00R
HUNTINGTON     CLOUDY    83  66  56 N6        29.96R
CHARLESTON     MOCLDY    79  68  69 NW3       29.95R
PINEVILLE*     CLOUDY    75  71  85 MISG      30.06R
BECKLEY        CLOUDY    70  67  90 SW3       30.04S
BLUEFIELD      MOCLDY    74  62  66 NW6       30.08R
LOGAN CO APT*    N/A     75  70  83 CALM      30.00S
$$

VAZ002-007-008-TNZ017-027-036-066-071-250100
...SOUTHWEST VIRGINIA/EAST TENNESSEE...

CITY           SKY/WX    TMP DP  RH WIND       PRES   REMARKS
WISE*          LGT RAIN  73  63  68 NW7       30.09R
JONESVILLE*      N/A     84  68  58 SW5       30.02S
ABINGDON*      PTCLDY    82  66  58 W8        30.03S
BRISTOL        PTCLDY    85  65  51 W9        30.00R
MORRISTOWN*    CLEAR     86  68  54 NW3       30.00R
SEVIERVILLE*   CLEAR     88  66  48 W3        29.98R HX  90
KNOXVILLE      MOCLDY    85  67  54 SW6       29.97S
LAFOLLETTE*    CLEAR     81  73  78 CALM      30.02S
OAK RIDGE      CLEAR     88  66  48 VRB3      29.99S HX  90
CROSSVILLE     CLEAR     80  66  62 NW3       30.05S
NASHVILLE      CLOUDY    89  71  55 NE5       29.96R HX  95
$$

...KEY TO REMARKS...
VSB - VISIBILITY IN MILES
WCI - WIND CHILL INDEX
HX  - HEAT INDEX

$$




USA.gov is the U.S. government's official web portal to all federal, state and local government web resources and services.